STARLINK-3106, 49164

Orbit data source: Space-Track

STARLINK-3106, 49164 is a payload satellite owned by SpaceX/Seattle (US) in LEO that was launched on Tue, 14 Sep 2021 UTC via an FALCON 9 launch vehicle from the Air Force Western Test Range (AFWTR). Payload-class satellites include a variety of spacecraft equipped with specific instruments for various scientific and technological missions. These include communications satellites like Starlink; space stations such as the ISS; scientific satellites like the Hubble; Earth observation satellites from companies like Planet Labs, Umbra, and HawkEye 360; GPS; miniature CubeSats for education and research; and military/defense satellites.

Loading next visibility...
Identifier
49164, 2021-082AL
Orbit
LEO
Last TLE update
7 hours ago
Origin
Manufacturer
SpaceX/Seattle
Mission
Operational Commercial Communications
Bus & Motor
STARLINK, Unknown motor
Mass
297 kg wet, ~275 kg dry
Launch date (UTC)
2021-09-14 (4 years ago)
Launch vehicle
FALCON 9
Launch site
Air Force Western Test Range (AFWTR)
Object type
Payload
Rocket body
Debris
Shape & HBR
Box + 1 Pan, 8.86 m
Radar Cross Section
13.562 m², Large (>1 m²)

Expand to show TLE details & history

TLE from 7 hours ago
0 STARLINK-3106
1 49164U 21082AL  25183.95633377  .00000199  00000-0  24497-4 0  9998
2 49164  69.9976 184.1213 0003447 268.1246  91.9519 14.98331441210239
Epoch: 2025-07-02T22:57Z
TLE epoch observation values (Epoch: 2025-07-02T22:57:07.237Z)
Latitude
0.00003°
Longitude
-81.38884°
Altitude
574.558 km
Speed
7.574 km/s
True Right ascension
12h 16m 29s
True Declination
0° 00' 00"
Sunlit
Object was in daylight at epoch
Visualization orbit readout
Latitude
-45.84622°
Longitude
119.72471°
Altitude
587.291 km
Speed
7.567 km/s
Apparent Right ascension
03h 55m 22s
Apparent Declination
-48° 00' 41"
Sunlit
Object is in daylight
Visualization observer readout
Local Sidereal Time
18:08:35
Azimuth
119.911° SE
Elevation
-64.926°
Doppler factor
1
Orbital elements
Apogee altitude
572.395 km
Perigee altitude
567.605 km
Semi-major axis
6,948.137 km
Eccentricity
0.00034
Inclination
69.9976°
RAAN
184.1213°
Arg. of periapsis
268.1246°
True anomaly
Unknown
Mean anomaly
91.9519°
Eccentric anomaly
Unknown
Mean motion
3.74749 °/min
Orbital period
96.06 mins
BSTAR
0.000024497
Loading maneuver chart data...
Loading SW <> Apogee altitude chart data...
Loading historical data...
Loading historical data...
Loading historical data...
Loading historical data...
Loading historical data...
Loading historical data...
Loading historical data...

STARLINK-3106 Visibility forecast

Observer location: undefined°, undefined°

Span
Click to sort rows by Start time (UTC) header in descending order
Start Az.
Max El. time (UTC)
Max El. Az.
Max El.
End time (UTC)
End Az.
7 mins2025-07-03 10:42:55.741Z353.928° N2025-07-03 10:45:55.741Z59.46° ENE34.541°2025-07-03 10:49:55.741Z134.153° SE
5 mins2025-07-04 00:43:55.741Z152.978° SSE2025-07-04 00:45:55.741Z108.93° ESE26.649°2025-07-04 00:48:55.741Z51.441° ENE
4 mins2025-07-04 02:22:55.741Z275.508° WNW2025-07-04 02:23:55.741Z295.523° NW21.003°2025-07-04 02:26:55.741Z349.942° N
|